FENGYUN 1C DEB

Satellite information

Favourite Embed

Satellite Type and Status

DEBRISIN ORBIT

Key statistics

Satellite FENGYUN 1C DEB at a glance.

Uptime

9674

Days in orbit

Revolutions

≈ 14.4

Per day

Orbit

SSO

Sun Synchronous Orbit

Inclination

99.2

Latest

Satellite identification and parameters

Extended collection of information and parameters for FENGYUN 1C DEB.

Object identification

Identified? True

Debris? True

Object name: FENGYUN 1C DEB

International designator: 1999-025ENH

Object number (NORAD): 37908

Object ID (CCSDS): 37908

Country: PEOPLES REPUBLIC OF CHINA (PRC)

Current information (Y/N): Y

RCS size: SMALL

Orbital parameters

Period: 100.25 minutes

Inclination: 99.1575 deg

SMA: 7148.544 km

Apoapsis: 822.926 km

Periapsis: 717.892 km

RAAN: 334.0996 deg

Eccentricy: 0.00734656

Argument of periapsis: 280.5337 deg

Mean anomaly: 78.7577 deg

Mean motion: 14.36403214 rev/day

Mean motion (dot): 0.00001913 rev/day2

B* drag term: 0.00065002085 1/REarth

Two-line elements (TLE)

Creation date: Nov. 1, 2025, 7:40 p.m.

Reference frame: TEME

Reference center: EARTH

Epoch: Oct. 31, 2025, 7:36 p.m. UTC

TLE line 0: 0 FENGYUN 1C DEB

TLE line 1: 1 37908U 99025ENH 25304.81713823 .00001913 00000-0 65002-3 0 9999

TLE line 2: 2 37908 99.1575 334.0996 0073466 280.5337 78.7577 14.36403214634599

Live tracking on map

Real-time ground track for satellite FENGYUN 1C DEB.

In-orbit conjunctions

A list of the most updated potential collisions computed for object FENGYUN 1C DEB.

Target Orbit TCA Probability of collision Miss distance Type
CZ-6A R/B DEB LEO 2025-05-15 13:24:49 0.0005275565 155.0 (m) DEBRIS
CZ-6A DEB SSO 2025-04-22 16:09:12 0.0001168114 292.0 (m) DEBRIS
COSMOS 886 DEB * LEO 2024-11-12 07:36:59 0.0002921893 612.0 (m) DEBRIS

Associated space launch

Chinese polar orbiting meteorological satellite

FENGYUN 1C DEB was lifted into orbit during the mission ‘Long March 4B | Feng Yun 1C’, on board a Long March 4B space rocket.

The launch took place on May 10, 1999, 1:33 a.m. from Launch Complex 7.

For more information about the launch, click the button.

Launch to space Long March 4B | Feng Yun 1C
Long March 4B | Feng Yun 1C

Agency: N/A

Status: Launch Successful

Launch date: May 10, 1999, 1:33 a.m. UTC

Rocket: Long March 4B

Launch pad: Launch Complex 7

Location: Taiyuan Satellite Launch Center, People's Republic of China

...

Latest news about this satellite

There are no fresh news available about this satellite. Check back as we update our databases every day.


Newsletter sign-up

Weekly statistics, charts and insights to help you stay on top of the space industry.